{"data":{"norad_id":56100,"epoch":"2026-09-20T00:07:17.450976Z","epoch_age_seconds":148965,"freshness":"FRESH","line1":"1 56100U 23046H   26263.00506309 -.00000076  00000+0  67595-5 0  9999","line2":"2 56100  43.0028 143.8238 0001653 268.1104  91.9559 15.27572870191752","mean_motion":15.2757287,"eccentricity":0.0001653,"inclination_deg":43.0028,"raan_deg":143.8238,"arg_perigee_deg":268.1104,"mean_anomaly_deg":91.9559,"bstar":6.7595e-6,"rev_number":19175,"period_min":94.267188707011,"perigee_km":481.93628831689,"apogee_km":484.20460349851,"semimajor_km":6861.2074459077,"source":"CELESTRAK","updated_at":"2026-09-21T09:00:33.362793Z"}}